Weather History for Sterling, IL

Change the Weather History Date:

Thursday, January 24, 2013

  Actual Average Record
Temperature  
Mean Temperature 12 °F -  
Max Temperature 21 °F 26 °F 41 °F (2006)
Min Temperature 3 °F 12 °F -18 °F (2008)
Degree Days  
Heating Degree Days 53    
Moisture  
Dew Point 0 °F    
Average Humidity 54    
Maximum Humidity 67    
Minimum Humidity 42    
Precipitation  
Precipitation 0.00 in - - ()
Sea Level Pressure  
Sea Level Pressure 30.50 in    
Wind  
Wind Speed 10 mph (ENE)    
Max Wind Speed 14 mph    
Max Gust Speed 20 mph    
Visibility 10 miles    
Events      
Averages and records for this station are not official NWS values.
T = Trace of Precipitation, MM = Missing Value Source: NWS Daily Summary

Daily Weather History Graph

Daily Weather History Graph

Search for Another Location

Airport:

Trip Planner

Search our weather history database for the weather conditions in past years. The results will help you decide how hot, cold, wet, or windy it might be!

Date:

Astronomy

Jan. 24, 2013 Rise Set
Actual Time 7:17 AM CST 5:04 PM CST
Civil Twilight 6:47 AM CST 5:34 PM CST
Nautical Twilight 6:14 AM CST 6:08 PM CST
Astronomical Twilight 5:41 AM CST 6:41 PM CST
Moon 3:06 PM CST (1/24) 5:15 AM CST (1/24)
Length of Visible Light 10h 46m
Length of Day
9h 46m
Waxing Gibbous, 94% of the Moon is Illuminated
Jan 24
Waxing Gibbous
Jan 26
Full
Feb 3
Last Quarter
Feb 10
New
Feb 17
First Quarter

Hourly Weather History & Observations

Time (CST) Temp. Windchill Dew Point Humidity Pressure Visibility Wind Dir Wind Speed Gust Speed Precip Events Conditions
12:15 AM 10.4 °F -4.8 °F -0.4 °F 62% 30.41 in 10.0 mi North 12.7 mph 17.3 mph N/A   Clear
12:35 AM 10.4 °F -4.1 °F -2.2 °F 57% 30.43 in 10.0 mi North 11.5 mph 17.3 mph N/A   Clear
12:55 AM 10.4 °F -5.4 °F -2.2 °F 57% 30.44 in 10.0 mi North 13.8 mph - N/A   Clear
1:15 AM 8.6 °F -4.7 °F -0.4 °F 67% 30.46 in 10.0 mi North 9.2 mph - N/A   Clear
1:35 AM 8.6 °F -7.7 °F -0.4 °F 67% 30.47 in 10.0 mi North 13.8 mph 19.6 mph N/A   Clear
1:55 AM 8.6 °F -6.3 °F -2.2 °F 62% 30.48 in 10.0 mi North 11.5 mph - N/A   Clear
2:15 AM 8.6 °F -7.0 °F -2.2 °F 62% 30.50 in 10.0 mi North 12.7 mph 18.4 mph N/A   Clear
2:35 AM 6.8 °F -5.9 °F -4.0 °F 61% 30.50 in 10.0 mi North 8.1 mph - N/A   Clear
2:55 AM 6.8 °F -6.9 °F -4.0 °F 61% 30.51 in 10.0 mi North 9.2 mph - N/A   Clear
3:15 AM 6.8 °F -6.9 °F -5.8 °F 56% 30.52 in 10.0 mi North 9.2 mph 16.1 mph N/A   Clear
3:35 AM 6.8 °F -6.9 °F -5.8 °F 56% 30.52 in 10.0 mi North 9.2 mph - N/A   Clear
3:55 AM 6.8 °F -6.9 °F -5.8 °F 56% 30.53 in 10.0 mi North 9.2 mph - N/A   Clear
4:15 AM 5.0 °F -9.1 °F -5.8 °F 61% 30.53 in 10.0 mi North 9.2 mph - N/A   Clear
4:35 AM 5.0 °F -9.1 °F -5.8 °F 61% 30.53 in 10.0 mi North 9.2 mph - N/A   Clear
4:55 AM 5.0 °F -9.1 °F -5.8 °F 61% 30.55 in 10.0 mi North 9.2 mph 17.3 mph N/A   Clear
5:15 AM 5.0 °F -10.0 °F -5.8 °F 61% 30.56 in 10.0 mi North 10.4 mph - N/A   Clear
5:35 AM 5.0 °F -10.0 °F -5.8 °F 61% 30.55 in 10.0 mi North 10.4 mph - N/A   Clear
5:55 AM 5.0 °F -9.1 °F -5.8 °F 61% 30.57 in 10.0 mi North 9.2 mph - N/A   Clear
6:15 AM 3.2 °F -11.3 °F -5.8 °F 66% 30.56 in 10.0 mi North 9.2 mph - N/A   Clear
6:35 AM 3.2 °F -9.1 °F -5.8 °F 66% 30.58 in 10.0 mi NNE 6.9 mph - N/A   Clear
6:55 AM 3.2 °F -9.1 °F -5.8 °F 66% 30.58 in 10.0 mi NNE 6.9 mph - N/A   Clear
7:15 AM 3.2 °F -11.3 °F -5.8 °F 66% 30.58 in 10.0 mi NNE 9.2 mph - N/A   Clear
7:35 AM 3.2 °F -11.3 °F -5.8 °F 66% 30.59 in 10.0 mi NE 9.2 mph - N/A   Clear
7:55 AM 5.0 °F -10.8 °F -5.8 °F 61% 30.60 in 10.0 mi NNE 11.5 mph - N/A   Clear
8:15 AM 6.8 °F -10.0 °F -5.8 °F 56% 30.61 in 10.0 mi NE 13.8 mph - N/A   Clear
8:35 AM 6.8 °F -5.9 °F -4.0 °F 61% 30.62 in 10.0 mi NE 8.1 mph - N/A   Clear
8:55 AM 6.8 °F -5.9 °F -4.0 °F 61% 30.63 in 10.0 mi NNE 8.1 mph - N/A   Clear
9:15 AM 8.6 °F -2.6 °F -2.2 °F 62% 30.63 in 10.0 mi NNE 6.9 mph - N/A   Clear
9:35 AM 8.6 °F -4.7 °F -2.2 °F 62% 30.63 in 10.0 mi NNE 9.2 mph - N/A   Clear
9:55 AM 10.4 °F -0.4 °F -2.2 °F 57% 30.62 in 10.0 mi NNE 6.9 mph - N/A   Clear
10:15 AM 10.4 °F 0.8 °F -2.2 °F 57% 30.62 in 10.0 mi ENE 5.8 mph - N/A   Clear
10:35 AM 10.4 °F 2.2 °F -2.2 °F 57% 30.63 in 10.0 mi NNE 4.6 mph - N/A   Clear
10:55 AM 12.2 °F 2.9 °F -2.2 °F 53% 30.63 in 10.0 mi NE 5.8 mph - N/A   Clear
11:15 AM 12.2 °F 6.1 °F -0.4 °F 57% 30.62 in 10.0 mi ENE 3.5 mph - N/A   Clear
11:35 AM 14.0 °F 2.9 °F -0.4 °F 53% 30.59 in 10.0 mi NE 8.1 mph - N/A   Clear
11:55 AM 15.8 °F 5.1 °F -0.4 °F 49% 30.58 in 10.0 mi NNE 8.1 mph - N/A   Clear
12:15 PM 15.8 °F 7.2 °F 1.4 °F 53% 30.58 in 10.0 mi East 5.8 mph - N/A   Clear
12:35 PM 15.8 °F 6.1 °F -0.4 °F 49% 30.58 in 10.0 mi East 6.9 mph - N/A   Clear
12:55 PM 17.6 °F 8.2 °F 1.4 °F 49% 30.57 in 10.0 mi ESE 6.9 mph - N/A   Clear
1:15 PM 17.6 °F 9.3 °F -0.4 °F 45% 30.56 in 10.0 mi East 5.8 mph - N/A   Clear
1:35 PM 17.6 °F 7.3 °F 1.4 °F 49% 30.55 in 10.0 mi ESE 8.1 mph - N/A   Clear
1:55 PM 19.4 °F 7.9 °F 1.4 °F 46% 30.53 in 10.0 mi East 10.4 mph - N/A   Clear
2:15 PM 21.2 °F 10.9 °F 1.4 °F 42% 30.52 in 10.0 mi East 9.2 mph - N/A   Clear
2:35 PM 19.4 °F 10.4 °F 1.4 °F 46% 30.52 in 10.0 mi SE 6.9 mph - N/A   Clear
2:55 PM 19.4 °F 10.4 °F 3.2 °F 49% 30.52 in 10.0 mi East 6.9 mph - N/A   Clear
3:15 PM 19.4 °F 9.5 °F 3.2 °F 49% 30.51 in 10.0 mi East 8.1 mph - N/A   Clear
3:35 PM 21.2 °F 11.7 °F 6.8 °F 54% 30.49 in 10.0 mi SE 8.1 mph - N/A   Clear
3:55 PM 21.2 °F 10.9 °F 5.0 °F 50% 30.48 in 10.0 mi ESE 9.2 mph - N/A   Clear
4:15 PM 21.2 °F 14.9 °F 5.0 °F 50% 30.49 in 10.0 mi SE 4.6 mph - N/A   Clear
4:35 PM 21.2 °F 11.7 °F 6.8 °F 54% 30.47 in 10.0 mi SE 8.1 mph - N/A   Clear
4:55 PM 21.2 °F 10.9 °F 5.0 °F 50% 30.46 in 10.0 mi ESE 9.2 mph - N/A   Clear
5:15 PM 21.2 °F 12.6 °F 3.2 °F 46% 30.45 in 10.0 mi SE 6.9 mph - N/A   Clear
5:35 PM 19.4 °F 11.5 °F 5.0 °F 54% 30.44 in 10.0 mi SE 5.8 mph - N/A   Clear
5:55 PM 21.2 °F 12.6 °F 5.0 °F 50% 30.43 in 10.0 mi ESE 6.9 mph - N/A   Clear
6:15 PM 21.2 °F 12.6 °F 5.0 °F 50% 30.43 in 10.0 mi ESE 6.9 mph - N/A   Clear
6:35 PM 21.2 °F 11.7 °F 5.0 °F 50% 30.41 in 10.0 mi ESE 8.1 mph - N/A   Clear
6:55 PM 21.2 °F 12.6 °F 3.2 °F 46% 30.42 in 10.0 mi SE 6.9 mph - N/A   Clear
7:35 PM 21.2 °F 11.7 °F 3.2 °F 46% 30.39 in 10.0 mi SE 8.1 mph - N/A   Clear
7:55 PM 21.2 °F 11.7 °F 5.0 °F 50% 30.39 in 10.0 mi SE 8.1 mph - N/A   Clear
8:15 PM 21.2 °F 11.7 °F 5.0 °F 50% 30.40 in 10.0 mi SE 8.1 mph - N/A   Clear
8:35 PM 21.2 °F 10.1 °F 5.0 °F 50% 30.38 in 10.0 mi SE 10.4 mph - N/A   Clear
8:55 PM 21.2 °F 10.1 °F 5.0 °F 50% 30.36 in 10.0 mi SE 10.4 mph - N/A   Clear
9:15 PM 21.2 °F 9.5 °F 3.2 °F 46% 30.36 in 10.0 mi SE 11.5 mph - N/A   Clear
9:35 PM 21.2 °F 10.9 °F 3.2 °F 46% 30.37 in 10.0 mi SE 9.2 mph - N/A   Clear
9:55 PM 21.2 °F 9.5 °F 3.2 °F 46% 30.34 in 10.0 mi SE 11.5 mph - N/A   Scattered Clouds
10:15 PM 21.2 °F 10.1 °F 3.2 °F 46% 30.33 in 10.0 mi SE 10.4 mph 18.4 mph N/A   Partly Cloudy
10:35 PM 21.2 °F 11.7 °F 3.2 °F 46% 30.34 in 10.0 mi SSE 8.1 mph - N/A   Clear
10:55 PM 21.2 °F 12.6 °F 3.2 °F 46% 30.34 in 10.0 mi SE 6.9 mph - N/A   Clear
11:15 PM 21.2 °F 11.7 °F 3.2 °F 46% 30.33 in 10.0 mi SE 8.1 mph - N/A   Scattered Clouds
11:35 PM 21.2 °F 10.9 °F 3.2 °F 46% 30.33 in 10.0 mi SE 9.2 mph - N/A   Mostly Cloudy
11:55 PM 21.2 °F 10.1 °F 3.2 °F 46% 30.31 in 10.0 mi SE 10.4 mph - N/A   Overcast